Theta_e
311 315 317 317 316 314 313 312 316 319 319 321 323 325 325 323 319 318 317 311 307 313 319 316 316 316 315 314 307 303 304 304 304 302 301 301 301 302 302 302 303 303 303 303 303 304 304 305 306 307 307 308 308 309 309 310 310 311 311 311 311 312 315 314 314 314 313 312 311 310 311 311 311 312 312 311 312 312 312 313 313 314 315 315 315 315
311 317 318 317 315 313 313 311 313 316 316 317 320 321 320 320 319 316 314 312 307 312 319 314 313 315 313 314 307 301 303 302 301 300 300 301 301 301 301 301 302 302 303 303 303 303 304 305 306 306 307 307 308 308 309 310 310 310 311 310 311 312 312 312 311 311 310 310 310 309 309 309 309 309 309 308 308 307 307 308 308 308 308 309 309 310
313 316 316 312 310 310 312 311 311 313 313 315 317 317 317 316 317 316 314 312 308 312 319 315 313 314 313 314 306 300 302 302 300 300 300 301 301 300 301 301 301 302 303 303 303 304 304 305 306 306 307 307 307 307 307 308 309 309 309 309 309 309 308 308 308 307 307 307 307 307 307 307 307 307 307 307 306 306 306 306 306 306 306 306 306 306
316 318 313 308 308 312 314 311 311 312 311 314 316 315 316 315 317 321 317 312 310 310 314 313 313 313 312 313 306 299 300 300 299 300 300 301 301 300 301 301 301 302 302 303 303 304 304 305 305 305 306 306 305 306 306 306 307 307 307 307 307 306 306 306 306 306 306 307 306 307 306 306 306 306 306 306 306 306 306 306 306 306 306 306 306 306
319 316 308 306 310 314 315 313 312 313 313 315 315 313 315 315 316 320 317 314 314 312 310 310 315 318 317 316 311 302 299 299 298 299 299 299 300 300 300 301 302 302 302 303 304 304 304 304 305 305 305 305 305 305 305 306 306 306 305 306 306 305 306 305 305 306 305 305 305 305 305 305 305 305 305 305 305 305 305 305 305 305 305 305 305 305
316 311 307 311 313 313 315 315 315 315 316 317 317 314 313 315 317 318 315 314 318 319 312 310 319 327 325 320 315 305 301 300 298 297 298 298 299 299 300 300 301 301 302 303 303 303 304 304 304 304 305 305 305 305 305 305 305 305 305 304 304 304 304 304 303 303 303 304 304 304 304 304 304 304 304 304 303 303 304 303 303 303 303 303 304 304
314 309 311 317 316 314 315 315 315 315 316 320 319 315 312 313 316 318 316 316 322 322 312 309 317 327 325 322 317 306 303 303 300 298 298 298 298 298 299 300 300 301 302 302 303 303 303 304 304 304 304 304 304 304 303 303 303 303 303 303 303 302 302 302 302 302 302 302 302 302 302 303 303 303 303 302 302 302 302 302 302 302 302 302 302 302
314 312 313 316 317 317 316 317 316 313 318 323 317 315 315 314 317 318 316 318 321 319 313 310 314 319 319 320 315 305 306 308 303 300 298 297 298 299 299 300 300 301 301 302 303 303 303 303 303 303 303 303 302 302 302 302 302 302 302 302 302 302 302 302 301 301 301 301 301 302 302 302 302 302 301 301 301 301 301 301 301 300 300 300 300 300
312 316 317 315 316 316 316 319 316 313 320 321 311 311 315 315 317 318 317 318 315 314 318 317 313 315 320 320 312 305 309 315 311 305 300 298 298 298 299 300 300 301 301 302 302 303 303 303 303 302 302 302 302 302 301 301 301 301 301 301 301 301 301 301 301 300 301 300 300 301 301 301 300 300 300 300 300 300 299 299 299 299 299 299 298 298
310 312 313 315 318 317 317 316 311 314 319 312 306 310 313 312 314 315 316 317 313 313 320 320 314 316 323 323 316 310 314 319 315 306 300 299 298 299 300 300 300 301 301 302 302 302 303 302 302 302 301 301 301 301 301 301 301 301 301 301 301 300 300 300 300 300 300 300 299 300 300 299 299 299 299 299 299 298 298 298 298 297 297 296 296 296
308 306 308 312 315 313 312 308 305 310 311 306 310 315 314 316 316 316 317 316 314 318 321 318 314 315 320 324 319 314 316 317 316 310 301 298 298 299 300 300 300 301 301 301 302 302 302 301 301 301 301 301 301 301 300 300 300 300 300 300 300 300 299 299 299 299 299 299 299 299 299 299 298 298 298 297 297 297 296 296 296 295 295 294 294 294
309 310 310 310 309 307 309 308 304 304 303 308 320 319 316 320 317 317 320 316 317 324 321 313 311 313 317 324 321 315 314 313 315 317 308 299 298 299 300 300 300 301 301 301 302 302 301 301 301 301 300 300 300 300 300 300 299 299 299 299 299 299 299 299 298 298 298 298 298 298 298 298 297 297 296 296 296 295 294 295 294 294 293 293 293 293
314 315 311 308 307 308 314 315 309 306 306 312 321 319 321 324 318 319 322 317 319 321 314 309 311 313 315 320 321 318 316 311 307 308 305 299 298 300 300 300 300 301 301 301 301 301 301 301 301 300 300 300 300 299 299 299 299 299 299 298 298 299 298 298 298 298 298 297 297 297 297 297 296 296 295 295 295 294 294 294 293 293 293 292 292 292
319 317 311 310 310 309 314 317 314 314 311 312 317 319 324 324 323 327 323 317 320 317 309 308 311 314 315 316 317 316 311 304 299 299 300 299 299 300 301 300 300 300 301 301 301 301 301 301 300 300 300 299 299 299 299 299 298 298 298 298 298 298 298 298 297 297 297 297 296 296 296 296 296 295 295 295 295 294 294 293 293 293 292 292 292 292
322 322 316 314 313 311 313 314 317 317 312 312 316 317 321 323 326 329 325 324 324 318 311 308 313 319 319 314 309 304 299 297 298 299 299 299 299 300 301 300 300 300 301 301 301 301 301 301 300 300 299 299 299 299 298 298 298 298 298 297 297 297 297 297 297 296 296 296 296 296 296 296 295 295 295 294 294 294 294 293 293 293 292 292 292 291
318 323 317 310 308 310 312 310 311 315 313 312 313 315 318 322 324 320 317 318 319 319 315 311 315 319 316 310 302 297 297 297 297 298 298 299 299 299 300 300 300 301 301 301 301 301 300 300 300 300 299 299 299 298 298 298 298 297 297 297 297 297 297 297 296 296 296 296 296 295 295 295 295 294 294 294 294 293 293 293 293 292 292 292 291 291
317 321 314 307 307 307 309 308 307 312 316 313 312 317 317 315 321 321 313 309 311 317 318 314 317 316 312 312 307 302 304 302 298 296 298 299 299 298 299 300 300 301 301 301 301 301 300 300 300 299 299 299 298 298 298 298 297 297 297 297 297 296 296 296 296 296 295 295 295 295 294 294 294 294 293 293 293 293 292 292 292 291 291 290 290 290
322 323 313 309 312 307 303 307 306 306 312 315 315 318 313 310 317 321 318 315 315 319 319 315 317 317 316 317 311 306 309 309 302 297 296 297 298 298 299 300 301 301 301 301 301 300 300 300 299 299 299 298 298 298 298 297 297 297 296 296 296 296 296 295 295 295 295 294 294 294 294 294 293 293 293 292 292 292 291 291 290 290 290 289 289 289
320 322 315 309 311 308 303 308 311 306 307 313 314 313 314 318 319 318 318 321 321 321 321 318 316 315 316 317 313 310 312 312 307 300 297 297 297 297 299 300 300 301 301 301 301 300 300 299 299 299 299 298 298 297 297 297 297 297 296 296 295 295 295 295 294 294 294 294 293 293 293 293 292 292 291 291 291 290 290 289 289 289 288 288 288 288
315 319 319 309 308 309 307 310 315 312 307 308 310 309 313 319 320 318 318 318 320 321 320 320 317 316 317 317 316 315 314 311 308 305 302 298 296 298 300 301 300 301 301 301 300 300 299 299 299 299 299 298 298 297 297 297 296 296 296 295 295 294 294 294 293 293 293 293 293 293 292 292 291 290 290 290 289 289 288 288 288 288 288 287 287 287
313 315 319 311 307 309 312 312 313 313 310 309 312 312 312 313 315 317 316 315 320 322 321 321 318 317 317 314 314 317 314 308 307 309 305 297 297 300 301 300 301 301 301 300 300 299 299 299 299 299 298 298 298 297 297 296 296 295 295 294 294 294 293 293 293 293 293 292 292 292 291 290 290 289 289 288 288 288 288 288 287 287 287 287 287 287
314 316 320 315 309 311 316 314 310 311 312 311 312 313 313 313 315 317 316 315 317 319 321 321 318 318 315 307 308 312 309 303 302 304 302 298 299 302 301 301 300 300 300 299 299 299 299 299 299 299 298 298 298 297 297 296 295 295 294 294 293 293 293 292 292 292 292 291 291 290 290 289 289 288 288 288 288 288 288 288 287 288 288 288 288 288
314 317 320 318 313 313 313 308 304 307 311 311 312 313 313 313 315 318 318 317 315 315 317 318 318 318 310 302 303 304 300 299 298 298 299 298 299 301 301 301 299 298 298 298 299 299 299 300 299 299 299 298 298 297 296 296 295 294 294 293 293 293 292 292 292 291 291 290 290 290 289 288 288 288 288 288 288 288 288 288 288 288 288 288 288 288
313 317 318 317 316 314 312 307 304 306 310 311 313 314 313 312 314 317 316 317 317 316 316 317 318 316 307 298 298 297 295 297 298 298 298 298 298 300 300 300 299 298 298 298 299 299 299 299 299 299 299 298 298 297 296 295 295 294 293 293 293 292 292 292 291 291 290 290 290 289 288 288 288 288 288 287 288 288 288 288 288 288 288 288 288 288
314 317 317 318 319 317 316 313 310 309 311 313 315 314 312 313 314 313 312 314 316 317 317 317 317 317 311 301 298 298 297 298 297 298 299 298 299 300 300 300 300 298 298 298 298 299 299 299 299 299 299 298 298 297 296 295 295 294 293 293 292 292 291 291 291 290 290 290 289 289 288 288 288 287 287 288 288 288 288 288 288 288 288 288 288 288
316 319 317 317 319 319 319 318 316 315 313 312 313 312 312 312 313 313 314 314 314 315 316 316 316 317 313 307 305 305 305 305 300 298 299 300 300 301 300 300 300 298 298 298 298 299 299 299 299 299 299 299 298 297 296 295 294 294 293 292 291 291 291 291 291 290 290 289 289 288 288 288 287 287 287 288 288 288 288 288 288 288 288 288 288 288
318 318 315 316 318 318 321 319 316 317 316 313 313 313 312 311 311 313 316 315 315 314 314 314 315 316 316 311 310 310 312 313 305 298 299 301 300 300 300 300 300 300 299 298 298 299 299 300 300 300 299 299 298 297 296 295 294 293 293 292 291 290 291 291 291 290 290 289 288 288 288 287 287 287 287 288 288 288 288 288 288 288 288 288 288 288
319 318 315 317 316 317 322 319 313 315 317 315 314 313 312 310 309 311 313 315 316 315 315 314 314 315 315 313 313 314 315 314 305 299 299 301 300 301 301 300 300 300 299 298 298 299 300 300 301 300 299 298 297 297 296 295 294 294 293 293 291 290 290 291 290 290 289 289 288 288 287 287 287 287 287 288 288 288 289 288 288 288 288 288 288 288
319 318 316 317 315 316 319 316 312 314 315 314 315 314 313 311 309 310 311 312 314 315 314 314 315 314 313 313 316 314 310 309 305 302 302 302 301 301 301 300 301 301 301 300 299 299 300 301 301 301 299 298 297 297 296 296 295 294 294 294 292 291 290 290 290 290 289 289 288 288 287 287 287 287 288 288 289 288 288 288 288 288 288 288 288 288
316 317 316 316 316 316 316 313 312 314 313 313 314 314 313 311 309 309 310 310 311 313 313 314 314 313 312 314 314 309 304 304 304 302 302 302 301 302 302 302 302 302 302 302 302 301 300 300 301 300 299 298 297 297 297 297 296 295 295 295 294 293 292 290 290 289 289 289 288 287 287 287 287 287 288 288 288 288 288 288 288 288 288 288 288 288
313 316 314 314 316 316 314 312 312 313 313 313 314 313 311 310 308 307 308 308 309 310 311 311 311 311 309 308 307 304 302 302 302 302 302 301 301 302 301 302 302 302 302 302 302 301 300 300 299 299 298 298 298 298 298 298 297 296 296 295 295 294 293 291 290 290 290 289 288 287 287 287 287 288 288 288 288 288 288 288 288 288 288 288 288 288
312 313 312 313 317 316 313 312 311 310 309 311 312 311 309 310 310 308 307 308 309 310 310 309 309 311 307 303 302 301 299 299 300 301 301 301 301 301 300 301 300 300 300 300 301 301 300 300 300 300 300 300 300 299 299 298 297 296 296 295 294 294 293 292 290 290 290 289 288 287 287 287 287 288 288 288 288 288 288 288 288 288 288 288 288 288
311 312 312 313 317 315 309 309 310 309 310 313 313 312 311 311 310 308 307 307 308 309 311 310 309 311 308 303 303 302 299 297 299 301 301 301 301 300 300 300 299 299 299 299 300 300 300 300 300 300 300 300 299 298 298 297 297 296 295 295 294 294 293 292 291 290 289 288 287 287 287 287 288 288 288 288 288 288 288 288 288 288 288 288 288 288
309 312 312 312 316 311 304 305 309 311 314 314 309 308 311 311 311 309 308 307 306 307 309 309 308 309 307 305 305 305 302 299 299 301 301 300 299 299 299 298 298 298 298 298 298 298 299 299 299 299 298 297 296 295 296 296 296 296 295 294 294 293 292 291 291 290 289 288 287 287 287 287 287 288 288 288 288 288 288 288 288 288 288 288 288 287
309 311 311 311 312 307 303 306 311 314 313 307 300 299 302 306 309 309 308 307 305 305 306 306 306 306 304 302 302 303 301 300 299 299 299 298 297 297 297 297 297 297 297 298 298 298 299 299 298 297 296 295 294 294 294 295 295 295 295 294 293 292 292 291 290 290 289 288 288 287 287 288 288 288 288 288 288 288 288 287 287 287 287 287 287 287
310 310 310 310 307 305 305 308 312 312 308 304 300 297 298 302 306 307 307 307 305 303 304 305 305 303 300 299 299 299 298 297 297 296 297 297 297 297 297 297 297 297 297 298 298 298 298 297 296 295 294 294 293 293 294 294 294 294 294 294 293 292 291 290 290 289 289 288 288 288 288 288 288 288 288 288 288 288 287 287 287 287 287 287 287 287
309 310 310 309 308 307 307 307 309 310 308 307 306 301 299 302 305 306 308 308 304 301 301 303 304 303 299 297 297 296 295 295 296 296 296 296 296 297 297 297 297 297 297 298 297 297 296 295 294 294 293 293 293 293 293 293 293 294 293 293 293 292 291 290 290 290 290 289 289 289 289 289 288 288 288 288 288 288 287 287 287 287 287 287 287 287
306 308 310 311 310 309 309 308 309 310 310 312 310 302 298 299 301 302 305 307 304 298 297 301 304 302 298 295 293 294 294 296 297 297 296 296 296 296 296 296 297 297 297 297 296 295 294 294 293 293 293 293 292 292 292 292 292 292 292 292 291 291 290 290 290 290 290 289 289 289 289 289 289 288 288 288 288 287 287 287 287 287 287 287 287 287
303 305 307 310 310 308 309 310 311 310 310 310 306 298 294 296 299 300 303 306 302 295 294 298 300 299 296 293 292 293 295 298 299 297 295 295 296 295 296 296 296 295 295 294 293 293 293 293 293 292 292 292 292 291 291 291 291 291 290 290 290 289 289 289 289 289 289 288 289 289 289 288 288 288 288 288 287 287 287 287 287 286 286 286 286 286
303 304 305 308 309 308 308 309 310 309 308 305 301 295 293 296 299 302 305 307 300 292 292 297 297 296 295 292 292 295 297 298 299 296 294 295 295 294 294 294 293 293 292 292 292 292 292 292 292 292 292 291 291 291 291 290 290 290 290 290 289 289 289 289 288 288 288 288 288 288 288 288 288 288 287 287 287 287 286 286 286 286 286 286 286 286
302 303 304 306 308 308 308 309 309 308 304 299 296 293 293 296 300 303 306 305 297 292 294 297 296 295 295 292 292 295 296 296 296 295 294 294 294 293 293 292 292 292 291 291 292 292 292 292 292 291 291 291 291 290 290 290 290 290 290 290 289 289 289 289 289 289 289 288 288 288 288 288 288 288 287 287 287 286 286 286 286 286 286 286 286 286
302 302 303 304 306 306 308 308 308 308 303 296 293 292 292 297 303 303 302 299 295 295 296 296 295 295 295 294 294 295 295 295 294 294 294 294 293 293 292 292 292 292 292 292 292 292 292 292 291 291 291 291 291 290 290 291 290 290 290 290 289 289 289 289 289 289 289 288 288 288 288 288 288 287 287 287 286 286 286 286 286 286 286 286 285 285
304 304 303 304 305 305 305 305 307 308 301 294 293 293 294 299 303 301 296 294 295 296 296 295 295 295 295 294 294 294 294 294 294 294 294 293 293 292 292 292 292 292 292 292 292 292 292 291 291 291 291 291 290 290 290 290 290 290 290 290 290 289 289 289 289 289 288 288 288 288 288 287 287 287 287 287 286 286 286 286 286 285 285 285 285 285
304 306 305 304 305 305 306 306 305 303 297 293 295 298 297 298 299 297 295 294 294 295 296 295 295 295 294 294 294 294 294 294 294 294 293 293 293 292 292 292 292 291 291 292 292 292 292 291 291 291 291 290 290 290 290 290 290 290 290 290 290 290 289 289 289 288 288 288 288 288 287 287 287 287 286 286 286 286 285 285 285 285 285 285 285 284
304 303 303 304 305 304 304 304 299 295 293 294 297 299 298 297 297 296 297 296 294 295 295 295 295 294 294 294 294 293 294 294 293 294 293 293 293 292 292 292 291 291 291 291 292 292 291 291 291 291 291 290 290 290 290 290 290 290 290 290 290 289 289 289 288 288 288 288 288 287 287 287 286 286 286 286 286 285 285 285 285 285 285 284 284 283
296 294 296 301 302 299 297 296 294 292 293 294 296 298 298 297 297 296 296 296 295 295 295 294 295 294 294 294 294 293 293 293 293 293 293 293 292 292 291 291 291 291 291 291 292 292 291 291 291 291 290 290 290 290 290 290 290 290 290 290 290 289 289 288 288 288 288 288 287 287 287 286 286 286 286 285 285 285 285 285 285 284 284 284 283 282
293 291 294 298 300 299 296 294 293 293 293 294 296 297 297 297 297 296 296 296 295 295 295 294 294 294 293 294 293 293 293 293 293 293 293 292 292 291 291 291 291 291 291 291 291 291 291 291 291 291 290 290 290 290 290 290 290 290 290 290 289 289 289 288 288 288 288 287 287 287 287 286 286 285 285 285 285 285 285 285 284 284 284 283 282 281
295 294 296 297 297 296 294 291 290 291 293 294 296 296 296 296 296 295 295 295 295 295 295 294 294 294 293 293 293 293 293 293 293 293 293 292 291 291 291 291 291 291 291 291 291 291 291 291 291 291 291 290 290 290 290 290 290 290 290 290 289 289 288 288 288 288 288 287 287 287 287 286 286 285 285 285 285 284 284 284 284 284 283 282 281 281
294 294 296 296 294 293 292 290 289 291 293 293 294 296 296 296 296 295 295 295 295 295 295 294 294 294 294 293 293 293 293 293 293 293 292 292 291 291 291 291 291 291 291 291 291 291 291 291 291 291 291 291 290 290 290 290 290 290 290 289 289 289 288 288 288 288 288 288 287 287 287 286 286 285 285 284 284 284 284 284 283 283 283 281 280 280
293 295 295 294 295 295 293 291 291 294 295 294 294 295 295 295 295 295 295 295 294 295 294 294 294 294 293 293 293 293 292 292 293 292 292 292 292 292 291 291 291 291 291 291 291 291 291 291 291 291 291 290 290 290 290 290 290 290 290 289 289 288 288 288 288 288 288 288 287 287 287 286 286 285 284 284 284 284 283 283 283 282 282 280 280 279
293 295 294 294 296 296 294 293 293 294 295 294 294 294 294 294 295 295 294 294 294 294 294 294 294 293 293 293 293 292 292 292 292 292 292 292 292 291 291 291 291 291 291 291 291 291 291 291 291 291 290 290 290 290 290 290 290 290 290 289 289 288 288 288 288 288 288 288 287 287 286 286 285 285 284 284 284 283 283 283 282 281 280 279 279 279
Wind_Speed
5 3 3 6 7 9 11 11 8 4 6 6 5 4 4 5 5 3 2 4 1 1 5 5 6 9 11 7 1 1 4 6 7 6 4 3 2 2 2 2 3 3 2 2 2 3 4 5 5 5 5 6 6 6 6 7 7 8 9 9 10 12 12 10 9 9 8 8 9 10 10 10 11 10 8 8 8 8 6 5 4 2 2 3 5 7
4 5 9 9 7 9 10 8 5 4 5 4 5 4 4 4 6 4 1 4 1 2 4 1 2 9 10 7 2 1 4 3 4 4 3 3 3 3 3 3 3 2 1 1 2 4 5 6 6 6 6 7 7 8 8 8 10 10 11 11 13 13 11 10 10 10 10 11 11 12 13 13 14 13 12 12 13 12 11 10 8 7 6 5 4 4
2 6 11 7 7 6 3 5 6 4 4 3 4 3 3 3 3 4 2 3 1 3 3 3 3 9 9 4 1 1 3 2 3 4 4 5 5 5 4 3 3 1 1 3 4 5 7 7 7 7 8 9 10 11 11 12 13 13 13 14 15 14 13 14 14 13 15 16 15 15 16 15 15 16 15 15 16 15 14 13 12 12 11 11 10 9
3 7 9 7 10 7 4 3 6 4 2 3 3 3 4 3 2 3 3 3 1 2 2 2 4 9 6 2 1 1 2 3 2 4 5 7 7 6 6 5 3 3 4 6 8 9 10 10 10 11 12 14 15 16 17 17 17 17 17 17 18 18 18 19 19 18 19 19 18 18 18 16 17 18 17 16 16 14 13 13 12 11 11 10 9 9
6 5 3 9 9 7 5 3 6 5 3 4 5 6 5 4 5 6 3 2 2 3 1 1 3 7 4 3 3 0 2 3 3 5 7 8 9 8 8 7 6 7 9 11 12 13 14 15 16 18 19 20 21 21 21 21 21 21 21 20 20 21 21 21 21 20 19 18 18 18 17 17 17 18 16 15 15 14 12 12 11 11 10 10 9 8
7 4 6 8 4 6 7 3 6 7 3 4 6 10 9 8 7 5 1 3 2 3 1 2 1 5 3 4 5 1 1 1 2 4 6 7 9 10 9 9 9 11 13 15 17 18 20 21 22 23 23 23 23 23 23 23 22 22 21 21 21 21 21 21 21 20 18 17 17 17 16 16 15 16 15 14 14 13 12 11 12 11 10 10 9 9
4 2 5 7 5 6 6 4 6 7 5 2 5 9 10 7 6 5 4 3 1 3 2 2 3 3 5 6 4 1 2 3 2 4 7 9 10 10 11 11 13 14 16 18 20 22 24 25 25 25 25 24 24 23 23 22 22 21 21 20 20 20 20 20 20 19 16 16 16 15 14 14 12 12 13 13 12 11 11 11 10 10 10 10 10 10
3 3 3 5 6 5 5 5 6 7 7 3 3 5 7 7 7 7 6 4 3 2 2 1 3 2 4 6 3 1 2 5 5 6 7 10 12 12 13 14 16 17 19 21 23 25 26 26 26 25 24 23 23 22 22 21 20 19 19 18 18 18 19 18 18 17 14 13 13 12 11 11 11 11 12 11 9 10 10 8 8 9 9 9 9 10
3 5 6 7 5 4 5 4 8 10 5 4 1 5 6 6 6 5 6 3 1 2 3 3 1 1 5 5 3 2 2 7 8 7 8 13 15 15 16 17 18 19 21 23 25 26 26 26 25 25 24 23 22 21 20 19 18 17 17 16 16 17 17 17 15 14 12 11 10 10 9 9 10 10 10 9 8 9 8 6 7 8 8 8 9 9
1 3 6 8 5 5 4 1 6 9 3 4 6 7 5 5 5 4 4 3 3 1 5 5 4 3 4 4 2 2 3 8 6 4 8 16 19 18 19 20 21 22 23 24 25 26 26 26 25 24 23 22 21 20 19 18 17 16 15 14 14 15 15 14 13 11 11 10 9 8 8 8 9 9 9 8 7 7 6 6 6 7 7 8 8 8
1 1 1 4 4 5 5 3 2 3 5 9 8 6 6 5 4 3 2 3 2 3 6 6 6 4 3 5 4 3 4 5 3 2 6 13 19 22 22 23 24 24 25 26 26 27 26 25 24 23 22 21 20 19 18 17 16 14 13 11 11 13 13 12 11 9 9 8 7 7 7 7 8 9 8 6 5 5 4 4 5 6 7 7 7 8
2 1 2 3 5 7 8 5 5 4 6 7 4 4 4 3 3 3 4 2 1 5 5 4 2 4 4 5 4 5 5 5 5 5 8 14 21 26 25 25 26 26 26 27 27 27 27 26 24 23 22 20 19 19 17 16 15 13 11 9 9 11 11 10 9 7 7 7 6 6 7 7 7 8 6 5 4 5 4 5 6 7 7 7 7 7
2 3 2 1 5 7 7 5 4 3 2 3 4 6 4 2 2 2 3 1 3 6 4 2 1 3 5 6 7 7 6 7 7 6 8 16 24 27 27 28 28 28 28 28 28 28 27 26 25 23 22 20 19 18 17 15 13 12 10 8 6 8 9 8 7 6 5 5 5 6 6 6 6 6 5 4 5 5 5 6 6 6 6 6 6 6
2 4 1 3 3 8 9 6 3 1 3 4 5 6 4 2 1 2 3 2 4 4 2 2 2 2 3 5 8 7 4 4 6 6 6 12 22 28 29 30 29 29 29 29 29 29 28 27 25 24 22 20 19 18 16 14 13 11 10 8 6 6 7 7 6 5 4 4 4 4 4 4 4 4 4 4 4 5 5 5 5 6 6 6 7 7
3 4 5 6 3 9 11 6 6 6 5 4 4 5 4 4 4 4 4 3 3 2 2 2 2 3 3 3 4 4 3 2 3 5 5 8 16 25 28 30 31 31 31 31 30 29 28 27 25 24 22 21 19 17 16 14 12 11 9 8 6 5 6 6 5 4 3 3 3 3 2 3 2 2 3 3 3 4 4 5 5 6 7 7 8 9
3 5 5 1 1 9 10 5 6 7 4 2 2 5 3 4 4 2 3 4 2 2 3 2 3 3 3 2 3 4 5 3 2 3 6 9 14 21 27 31 33 33 33 32 32 31 29 28 26 25 23 21 19 17 16 14 12 11 9 8 7 6 5 5 5 4 4 3 2 2 1 1 1 1 2 2 2 3 3 4 5 6 7 7 8 9
2 4 4 2 2 4 6 6 4 3 3 2 2 4 4 4 6 3 1 1 3 1 3 3 3 3 1 3 3 5 6 3 1 1 6 12 15 21 29 33 36 36 35 34 34 32 30 29 27 25 23 21 19 17 16 14 13 11 10 9 8 7 6 6 6 5 4 4 2 1 2 1 2 2 2 2 2 3 4 4 5 6 6 7 7 8
5 2 4 1 1 2 3 7 5 3 4 5 3 5 3 2 4 3 1 2 3 3 4 2 4 3 2 2 3 4 5 6 3 2 6 12 18 23 30 35 39 39 37 35 34 33 31 30 28 25 23 21 19 17 16 15 14 12 12 11 9 8 8 7 7 6 6 5 4 4 4 4 4 4 4 4 4 5 5 5 5 5 6 6 7 8
4 1 4 0 2 1 2 5 4 3 2 4 4 4 4 3 2 2 2 2 1 3 5 2 4 4 4 5 3 4 9 9 6 4 5 12 20 26 31 36 39 39 38 37 37 35 33 31 28 26 24 22 20 18 17 16 15 14 13 13 12 11 10 9 8 8 7 7 7 6 6 6 6 6 6 6 6 6 6 6 5 5 5 6 6 7
3 2 3 1 1 1 1 2 4 3 0 2 3 2 2 2 4 3 3 3 3 2 4 3 2 3 4 6 9 11 13 10 8 7 9 16 24 30 34 38 41 42 43 41 40 38 35 32 29 26 24 22 21 20 18 17 16 16 15 14 13 13 12 10 10 10 9 9 9 9 8 9 9 8 8 8 7 6 5 5 4 4 4 4 5 7
3 3 3 1 1 2 3 4 7 9 6 3 4 4 2 1 2 1 1 2 3 3 3 3 4 3 3 4 8 10 9 9 11 10 11 18 26 31 34 37 41 44 45 42 41 38 34 32 29 27 25 23 22 21 20 19 18 18 17 16 15 14 13 12 12 11 11 11 11 11 11 11 10 9 8 7 6 5 4 3 3 4 5 6 7 8
3 4 4 2 2 4 5 5 4 6 7 6 6 7 7 5 4 2 4 2 2 2 4 3 5 5 3 2 4 5 3 4 9 10 11 18 26 30 32 34 37 41 42 42 40 37 34 33 31 28 26 25 24 24 23 22 21 20 19 17 16 15 14 14 14 13 13 14 14 13 13 12 11 10 8 7 5 5 4 4 4 5 6 8 9 10
4 3 4 3 4 5 5 4 1 2 3 3 3 5 6 6 6 5 6 3 2 2 2 2 4 5 2 2 3 3 4 5 7 10 12 16 21 25 28 29 30 33 36 38 38 36 35 33 31 29 28 27 27 26 25 24 23 21 20 19 17 16 16 16 16 16 16 16 15 15 14 13 12 10 8 7 5 4 4 4 5 6 8 10 11 12
4 3 3 1 3 3 4 4 3 1 2 2 3 3 5 5 4 4 5 3 3 4 3 2 5 5 1 3 4 3 4 5 6 10 13 14 14 17 22 25 26 29 32 36 37 36 35 33 32 31 31 30 29 27 26 25 24 23 22 20 19 18 18 17 17 18 17 17 16 16 16 15 13 10 7 6 4 4 4 5 6 8 10 12 13 15
6 3 4 3 1 3 4 3 2 2 1 3 3 3 5 5 5 3 2 3 1 5 7 5 8 6 2 2 3 2 0 2 4 7 10 12 12 13 16 21 25 28 31 34 36 36 36 35 35 34 32 31 30 29 28 27 25 24 23 22 21 20 19 19 19 19 19 18 18 18 17 15 12 9 7 6 5 6 6 7 9 10 12 14 16 18
8 3 6 7 7 7 5 5 5 3 2 2 2 4 6 8 9 5 2 3 4 4 8 7 8 5 2 1 2 3 1 0 3 5 7 10 11 12 13 17 22 27 30 32 35 37 37 37 36 34 33 33 32 31 30 29 27 25 24 23 22 21 20 20 20 20 20 20 20 19 16 13 11 9 8 8 8 8 8 9 11 12 14 16 18 20
4 1 8 10 9 9 7 5 5 5 6 5 5 8 9 9 11 7 4 5 6 4 6 9 5 2 6 2 2 5 3 3 4 6 9 10 12 12 12 13 17 22 27 30 33 37 37 37 36 36 36 35 34 33 31 30 28 26 24 24 23 23 22 21 21 22 22 22 20 18 15 13 11 11 10 10 10 9 10 10 12 14 15 17 19 21
3 2 8 8 8 6 4 4 5 6 8 9 9 10 9 8 10 10 8 7 6 5 9 9 6 5 12 6 6 7 5 4 5 7 9 9 10 11 11 11 14 18 23 27 31 35 38 39 38 38 38 37 35 34 32 30 29 26 24 23 24 24 24 23 23 23 22 22 20 17 15 14 13 13 13 12 11 11 11 11 13 15 17 19 20 22
3 4 5 4 6 5 4 4 4 5 4 5 8 10 11 11 12 13 13 10 9 9 13 8 8 11 12 6 8 9 5 4 5 6 6 6 9 12 12 12 13 15 19 23 27 32 37 40 40 40 39 37 34 32 31 31 30 28 25 24 24 25 24 24 24 23 22 21 20 18 16 15 16 16 15 14 13 12 12 13 14 16 17 19 21 23
3 3 3 4 5 5 4 5 5 6 5 3 7 11 12 11 12 13 14 11 9 10 11 5 7 11 7 6 8 7 5 5 5 4 6 8 9 11 12 13 13 14 17 20 24 30 36 40 41 40 37 34 31 30 30 31 31 29 28 26 26 25 24 24 24 23 22 21 20 18 17 18 18 18 17 16 15 15 15 15 16 17 19 20 22 24
4 2 2 5 4 6 4 6 5 6 6 5 11 12 7 6 7 9 10 6 4 8 11 7 10 11 5 7 7 7 8 7 6 7 9 9 8 9 10 13 14 14 16 17 19 23 27 32 35 35 33 31 30 30 30 31 30 29 29 28 26 24 23 24 25 23 22 21 20 19 19 20 21 21 20 19 18 17 17 18 19 19 21 22 24 25
4 2 2 3 5 5 4 7 6 3 1 6 16 12 7 6 7 8 7 7 8 11 11 9 11 9 4 7 7 8 10 9 10 12 12 12 13 13 14 16 16 16 16 17 17 17 19 21 23 24 25 24 24 24 24 26 27 28 28 27 24 22 22 24 24 22 21 20 20 21 21 22 23 23 22 21 20 20 20 21 21 21 23 24 25 26
5 4 2 3 5 2 1 4 6 4 1 9 14 9 12 13 11 6 5 10 13 13 10 9 11 6 4 6 6 6 8 10 14 16 16 17 17 17 19 18 17 17 16 16 16 17 17 17 16 17 16 15 15 14 14 17 20 22 23 22 21 20 21 22 22 21 21 21 21 22 23 25 26 25 25 24 24 24 23 23 23 24 25 25 26 28
5 5 3 3 3 1 1 4 5 3 6 7 4 4 9 15 15 11 11 14 14 11 5 3 4 4 5 7 8 8 9 10 14 16 15 15 16 16 17 16 15 16 15 14 14 15 16 15 14 14 12 11 12 12 12 14 15 16 17 18 19 20 20 20 20 21 21 22 23 24 25 27 28 28 28 27 27 27 26 26 26 26 26 27 28 29
6 5 3 2 2 1 2 4 4 6 8 3 4 3 2 5 9 12 12 12 12 10 6 2 3 6 8 10 11 11 11 10 11 13 12 13 14 14 13 13 13 13 12 13 14 14 14 14 13 12 11 11 12 12 13 14 13 14 15 17 18 18 18 19 19 20 21 23 25 27 28 29 30 30 31 31 30 30 29 28 27 27 27 28 29 30
7 6 2 2 3 2 2 5 5 4 3 2 4 4 2 4 4 3 6 9 10 11 9 8 8 9 10 11 10 10 10 9 10 13 14 14 13 13 13 12 11 10 11 12 13 13 13 13 12 12 12 12 12 13 12 12 13 14 14 15 16 17 17 18 19 21 23 25 27 28 30 31 32 33 33 33 32 32 30 29 28 28 28 29 29 31
6 6 3 3 4 3 3 5 3 4 5 4 2 2 4 6 6 6 5 8 7 9 10 9 9 10 9 8 8 8 5 3 7 13 15 14 13 13 13 11 9 10 12 12 12 13 13 13 13 13 14 13 13 12 12 13 14 15 15 15 16 16 17 18 20 22 23 25 27 28 30 32 32 33 33 33 32 32 31 29 28 28 29 30 31 32
2 4 4 5 4 3 3 3 2 3 8 7 5 5 6 8 8 7 3 4 3 10 17 14 9 11 9 6 7 7 4 1 4 9 9 8 11 12 11 11 12 12 13 13 13 13 13 14 14 14 13 13 12 12 13 15 15 14 13 14 14 15 17 19 21 22 22 23 23 24 26 27 28 29 29 30 30 30 30 29 28 29 29 30 32 33
2 1 2 3 3 4 4 4 5 5 6 4 4 3 5 11 11 9 3 4 3 12 21 17 10 12 11 10 14 11 6 2 5 8 5 6 8 11 11 11 12 11 11 12 12 12 13 13 14 13 13 12 11 12 15 15 14 13 12 12 13 15 18 19 20 20 20 20 21 22 23 23 24 25 26 28 29 29 29 29 29 29 30 31 33 34
3 1 1 3 4 4 5 5 4 4 3 2 4 4 7 14 13 9 0 6 4 12 20 18 15 15 13 15 17 11 6 7 6 5 5 8 9 11 11 10 9 8 9 10 11 13 14 15 15 14 13 11 11 13 15 16 15 14 13 13 13 15 15 15 15 15 16 17 19 21 23 23 24 25 26 27 28 28 29 29 29 30 31 32 33 34
1 0 1 4 6 6 7 6 3 3 3 3 4 9 14 12 8 3 4 5 7 14 19 19 18 17 15 19 20 13 12 14 8 2 6 9 10 11 10 7 6 6 7 9 12 14 15 16 15 15 13 11 11 14 17 17 16 14 13 13 14 15 14 14 14 15 15 16 17 19 22 23 25 26 27 27 28 29 29 29 30 31 31 33 34 34
2 1 1 3 4 4 5 4 3 4 4 7 6 9 12 7 1 3 5 8 13 16 18 18 17 16 17 20 21 17 14 14 10 7 8 9 10 10 8 6 6 7 9 11 14 15 17 17 16 16 15 13 15 17 19 19 17 15 14 15 16 16 16 16 17 17 17 18 18 20 22 24 25 27 27 28 29 29 29 30 30 31 32 33 34 34
5 4 2 4 4 2 1 4 4 4 5 17 15 5 4 4 3 7 11 11 12 14 17 20 18 17 19 19 18 17 14 12 11 11 11 12 12 11 10 9 9 10 11 13 16 17 18 19 19 18 17 16 18 20 21 20 19 18 18 18 18 18 18 19 19 19 19 19 20 22 24 26 27 27 28 29 29 30 30 30 31 32 33 33 33 34
3 4 4 4 4 4 3 6 4 2 10 26 20 5 8 11 7 11 13 11 11 14 18 22 20 18 19 17 16 17 16 15 15 14 14 15 14 13 12 12 12 12 14 16 18 20 21 22 21 19 18 19 20 22 23 23 23 22 21 21 20 20 21 20 20 19 19 20 22 24 26 27 28 28 29 29 30 30 30 30 31 32 32 32 32 33
3 4 4 3 3 4 4 4 2 3 16 30 19 4 10 15 10 9 10 11 15 18 19 21 20 18 16 15 14 16 16 17 18 17 17 16 15 14 14 13 13 15 16 17 19 22 23 23 21 20 20 21 22 24 25 26 26 26 25 23 23 23 22 22 21 19 19 21 23 26 27 28 28 29 29 30 30 30 30 31 31 32 32 32 32 31
1 3 3 1 1 2 0 3 5 4 13 25 20 8 9 13 12 11 10 11 15 17 17 17 17 15 15 15 16 16 16 17 18 19 19 18 16 15 14 14 15 15 16 18 20 23 25 24 22 22 23 24 25 25 26 27 28 28 27 26 26 25 24 22 21 19 20 22 24 26 28 29 29 29 30 30 30 30 30 31 32 32 31 31 30 30
1 4 3 1 2 2 0 3 4 3 9 21 22 15 11 12 14 15 13 12 13 14 14 14 13 13 14 15 16 16 16 17 19 20 20 19 17 15 13 14 15 15 17 18 19 23 27 26 24 25 25 26 26 27 27 28 29 30 30 29 29 27 25 23 20 19 20 21 23 26 27 29 29 30 30 30 30 30 31 32 32 32 31 30 29 29
2 6 4 1 2 2 1 1 1 1 6 15 19 17 15 15 15 15 15 15 14 13 14 14 14 15 15 14 15 15 15 17 20 22 22 21 18 15 15 16 16 16 18 18 19 22 27 29 28 27 27 27 27 28 29 30 30 31 32 32 30 28 26 23 20 19 20 20 22 25 27 29 30 30 30 31 31 31 32 32 32 32 31 29 29 29
5 6 4 2 2 1 1 1 1 3 2 9 17 19 18 17 16 16 16 17 17 17 17 18 17 18 17 16 15 16 16 18 20 22 22 22 20 19 18 18 18 19 19 19 20 22 26 29 30 30 30 29 28 28 29 30 30 32 32 32 31 29 27 24 21 20 21 21 23 25 27 29 31 31 31 31 31 32 32 32 32 32 31 29 28 28
5 4 2 3 2 2 2 6 8 3 2 9 17 19 18 17 17 18 18 18 19 19 20 19 19 19 19 18 17 18 19 20 20 21 23 25 25 23 21 20 20 21 21 21 21 23 25 27 29 30 31 31 29 28 28 28 29 30 31 31 31 31 29 26 23 22 22 23 24 25 28 30 31 32 32 32 32 32 32 32 31 31 30 28 27 27
9 7 6 5 3 4 6 14 17 11 6 9 12 14 14 16 19 20 20 20 20 19 18 18 19 19 20 20 20 21 21 20 20 21 23 25 26 25 24 23 23 23 23 22 23 24 26 27 28 30 31 31 29 28 27 27 28 29 30 30 31 32 30 28 26 25 25 25 25 26 28 30 31 32 32 32 32 33 32 31 30 29 28 28 28 27
Wind_Direction
154 144 186 218 206 190 199 197 192 157 120 130 133 138 190 218 259 239 231 292 25 107 263 247 244 264 269 268 348 80 193 196 211 212 212 216 226 257 272 293 300 303 296 351 66 120 131 138 139 140 138 128 127 124 121 127 130 123 118 119 111 104 101 99 98 94 92 87 85 90 93 98 103 99 94 92 96 100 99 107 123 148 203 248 270 286
137 186 228 227 195 185 199 193 163 119 115 116 133 172 224 222 252 256 240 314 15 174 263 300 278 267 261 266 317 195 200 201 220 218 218 220 226 247 261 273 280 296 308 71 100 133 140 146 147 143 137 132 130 126 127 129 127 123 122 118 108 104 107 104 101 101 101 97 92 91 90 89 90 88 82 82 81 76 72 72 71 67 61 47 23 355
148 226 241 215 141 135 146 161 166 165 146 119 125 166 240 224 252 288 304 333 31 175 262 6 336 271 261 246 201 190 204 212 231 223 211 212 218 227 233 240 241 260 98 120 130 137 139 142 141 137 132 131 130 127 127 124 119 119 116 112 107 106 108 104 102 101 98 96 94 92 90 88 89 88 84 82 79 74 70 68 65 60 56 50 43 36
184 248 246 177 138 123 88 128 147 139 161 167 152 172 231 212 194 271 287 320 17 139 246 8 331 279 272 244 178 80 188 188 188 201 201 205 212 216 216 216 198 169 150 145 143 136 133 132 129 129 127 124 123 121 120 117 114 114 112 109 108 107 104 100 98 96 93 92 92 92 91 93 93 91 88 86 85 82 78 76 73 68 62 54 46 41
216 254 195 143 146 147 131 133 143 148 218 229 204 200 214 201 203 231 267 318 346 21 84 107 331 292 286 269 252 184 158 162 147 176 190 198 205 208 207 198 178 166 159 152 145 136 130 128 126 124 122 119 118 117 115 114 113 111 110 108 106 104 100 98 95 92 89 89 90 91 92 91 90 90 91 88 86 84 81 77 71 65 60 51 44 39
244 238 131 120 131 156 150 172 181 173 201 265 228 208 210 208 208 219 2 30 12 340 286 142 289 287 313 293 255 275 323 205 164 185 193 196 200 203 198 184 172 166 159 150 141 134 130 127 125 121 119 118 117 115 113 111 110 108 107 105 104 102 99 96 93 89 87 86 86 85 85 85 83 88 89 82 77 74 67 63 58 53 50 43 36 33
245 203 133 131 145 161 171 219 217 172 150 271 245 204 203 196 182 179 145 115 170 247 266 119 174 250 314 305 266 284 297 270 261 229 212 206 203 201 193 180 173 165 156 148 139 134 131 127 125 122 120 120 117 114 112 110 108 107 106 105 104 102 98 95 92 89 85 81 81 81 82 84 81 78 78 73 68 64 59 56 53 48 44 40 33 30
179 145 121 140 141 154 186 228 218 160 139 239 255 162 166 169 176 181 162 173 228 253 320 16 148 210 290 286 286 327 275 272 253 235 225 215 207 201 192 181 174 165 154 147 141 137 133 130 128 125 124 122 119 115 112 111 109 108 107 105 103 100 96 92 89 88 85 80 81 83 82 83 77 69 71 73 68 66 63 56 54 49 43 38 33 29
151 168 186 168 150 181 202 220 186 159 154 245 202 115 137 152 160 153 146 178 312 359 291 291 135 206 262 269 327 22 291 272 245 217 214 214 208 200 191 182 174 165 156 149 144 139 136 134 131 129 127 124 120 117 114 113 111 108 107 105 103 100 95 92 90 91 94 88 82 81 75 72 73 69 71 75 73 72 66 52 52 47 38 36 30 26
111 189 195 159 158 202 203 294 174 167 186 177 122 90 77 72 79 93 115 122 51 12 249 238 183 202 271 278 312 37 271 262 244 206 206 209 206 200 191 183 175 167 159 152 147 144 141 138 136 133 130 126 123 122 120 117 114 112 110 109 109 107 103 101 100 101 100 93 81 76 69 64 70 71 72 75 72 71 61 45 48 43 36 34 26 23
17 90 190 160 177 174 131 66 74 118 137 135 110 73 61 43 47 56 61 92 76 273 249 230 199 191 270 274 235 202 224 213 171 182 209 204 204 200 191 183 177 169 162 156 152 149 146 143 140 137 133 131 130 128 126 122 120 118 115 116 116 112 109 107 105 102 98 93 80 75 72 64 70 74 75 75 69 70 61 44 48 43 35 30 23 21
350 83 253 198 169 131 103 67 43 68 119 120 91 95 93 5 16 28 358 51 152 252 259 258 209 174 220 255 241 229 233 195 168 183 192 194 202 200 191 184 179 172 165 161 158 155 152 149 145 142 140 139 138 134 130 127 126 125 122 122 119 113 111 107 104 99 94 91 79 73 73 65 70 77 77 68 62 65 51 35 40 36 30 25 20 16
295 229 247 170 177 159 120 79 46 36 78 92 96 117 111 346 8 350 293 249 227 244 266 284 201 195 228 247 248 239 232 214 205 201 192 194 198 196 190 185 180 175 170 166 164 160 157 154 150 148 148 147 143 139 136 134 133 135 134 134 125 114 115 112 106 101 93 89 76 71 69 62 67 74 67 49 42 40 30 27 30 26 23 17 10 3
269 288 208 141 209 192 164 141 145 189 172 156 149 142 138 133 138 256 256 261 259 255 293 282 240 243 257 264 254 241 229 214 210 216 216 204 199 194 188 185 182 179 175 171 169 166 162 159 156 155 155 152 148 146 145 144 144 145 145 147 145 126 122 123 120 112 106 101 84 78 73 61 62 56 39 28 23 20 16 15 12 6 5 1 356 354
206 284 201 175 193 184 180 174 158 146 153 178 161 135 147 158 171 214 215 214 243 275 324 300 236 195 197 270 279 279 308 286 237 230 223 211 204 196 189 187 187 184 179 177 175 170 166 164 163 162 160 157 154 153 154 155 156 160 157 157 162 154 139 141 146 142 139 137 110 102 97 63 52 33 16 7 3 360 353 349 345 345 347 345 344 345
181 267 240 223 132 165 175 173 132 116 133 200 124 112 173 188 154 160 193 175 173 306 305 238 229 221 200 268 299 327 322 284 259 257 213 201 201 196 193 193 191 188 184 182 179 174 171 171 170 168 165 162 162 162 163 164 166 172 174 172 174 177 170 166 173 173 170 167 148 128 130 64 23 346 332 331 335 330 326 329 328 328 331 331 333 336
151 274 278 28 55 164 173 165 137 133 166 157 135 172 211 179 119 111 228 65 79 270 266 195 238 292 301 286 317 356 326 270 195 290 207 196 194 196 198 197 194 192 188 185 182 178 177 178 175 171 169 168 168 169 172 174 176 180 186 189 191 194 194 190 191 194 193 190 192 196 207 245 262 262 274 282 289 296 301 304 305 309 313 317 323 325
151 253 279 126 144 250 155 126 86 50 125 126 185 203 183 130 97 105 218 353 53 243 272 207 215 246 186 245 319 350 295 258 205 172 201 197 196 201 203 200 197 195 191 188 185 183 184 183 179 175 173 174 174 177 181 184 187 189 194 199 204 207 210 209 207 207 211 213 220 229 233 246 252 249 254 259 263 268 272 277 284 292 296 301 305 305
150 194 283 208 155 228 121 116 80 17 101 135 180 171 121 146 170 114 169 218 175 238 281 259 214 221 190 201 218 215 234 234 202 177 201 203 201 205 206 203 201 198 194 192 189 189 190 186 182 179 178 179 181 185 189 192 196 200 203 205 208 211 214 217 218 218 223 225 230 240 244 247 248 246 248 249 251 253 255 262 269 274 279 285 291 294
147 179 260 287 195 182 85 153 173 200 240 67 103 122 90 147 167 154 158 166 162 210 268 274 239 228 218 198 180 193 213 207 180 186 212 212 207 206 205 204 203 200 197 195 193 194 193 188 185 184 184 185 187 191 196 199 203 207 210 212 213 216 218 220 224 225 230 235 239 245 247 245 243 241 241 242 242 245 245 251 259 269 284 295 300 302
124 185 221 283 311 166 186 212 194 184 173 145 150 169 182 116 119 177 197 135 135 165 212 270 281 245 227 203 179 193 210 193 183 195 211 214 211 210 208 206 205 203 200 199 198 197 194 189 188 188 189 191 195 199 203 205 209 211 214 216 217 219 222 225 230 232 235 240 242 244 244 243 241 238 238 237 236 240 247 261 285 303 312 317 317 316
156 180 173 159 184 194 224 250 223 193 178 173 184 180 181 169 131 163 241 201 126 173 178 207 269 255 218 195 185 196 220 210 208 212 214 216 215 214 212 210 208 207 205 204 201 198 194 192 193 193 193 197 201 205 208 209 213 215 217 219 219 222 225 229 234 236 238 241 241 243 243 241 239 236 235 237 240 253 272 294 315 325 328 329 327 324
142 126 139 178 211 215 249 294 299 211 155 138 203 185 178 182 155 171 221 212 148 215 140 119 264 270 244 209 211 220 250 255 237 229 230 230 223 220 218 215 214 212 210 208 204 200 197 196 197 197 199 203 206 208 212 214 216 217 219 221 222 225 228 231 235 237 238 240 241 243 242 239 237 236 236 241 250 269 292 312 325 330 330 331 330 329
134 123 150 227 305 318 317 332 356 16 95 135 236 183 170 194 175 174 199 160 157 197 134 120 250 257 231 220 233 248 254 253 238 229 236 242 237 230 225 220 218 216 215 212 208 204 202 201 202 204 206 209 211 213 215 217 219 220 221 223 225 227 229 232 235 237 239 241 242 242 240 238 237 235 235 241 254 275 295 309 319 325 327 331 333 334
174 164 147 141 346 336 332 319 302 314 236 209 218 171 179 171 122 108 131 106 207 196 151 179 244 244 209 223 263 298 277 249 246 230 235 242 241 237 229 222 219 216 215 214 210 207 206 205 207 210 212 214 216 218 219 220 222 223 224 226 226 228 230 232 236 239 241 242 242 240 238 236 234 231 233 244 260 280 295 306 314 320 326 331 334 336
178 186 163 170 196 202 207 216 209 198 190 209 182 167 192 178 157 163 145 155 226 193 155 202 245 264 298 341 302 302 26 270 252 220 221 230 230 232 232 226 222 218 216 215 212 211 210 210 212 215 217 219 222 223 224 224 225 226 228 228 228 229 231 233 236 239 241 242 241 239 237 234 233 234 244 258 271 284 295 305 312 319 325 330 334 336
157 235 194 202 215 202 197 208 182 141 152 194 198 181 193 196 182 173 145 180 201 163 199 226 213 250 269 232 225 262 238 217 230 211 213 221 222 225 230 230 228 224 221 218 215 214 213 214 216 219 222 225 227 229 229 230 230 230 232 231 229 231 233 234 237 239 242 242 240 237 236 236 240 247 256 264 273 283 293 304 312 319 324 327 330 332
100 239 209 217 233 209 170 172 169 158 173 192 195 190 197 197 186 186 199 202 154 144 238 236 147 213 250 213 191 233 226 216 233 225 226 229 224 220 222 226 227 224 223 220 218 217 216 217 220 223 227 230 232 234 235 236 236 235 237 237 235 235 236 237 238 239 241 241 240 238 239 241 247 252 257 263 270 279 290 301 310 316 320 321 323 325
130 218 206 195 224 207 130 138 167 162 170 186 192 201 206 198 189 196 211 207 166 190 244 234 165 220 244 194 190 214 193 189 219 224 225 214 207 210 214 219 218 217 221 222 222 221 219 220 224 228 231 234 236 239 241 241 240 237 239 241 239 239 240 241 240 240 241 242 242 241 242 246 251 254 257 261 268 276 286 296 304 309 311 312 314 316
158 221 191 167 227 236 169 160 169 169 179 199 210 215 214 205 196 200 214 212 193 222 255 248 211 236 232 172 198 204 163 169 193 201 204 196 195 202 209 215 215 218 225 228 229 227 225 225 229 233 237 240 243 247 249 249 246 243 243 244 241 240 241 241 241 241 242 244 245 244 245 249 253 256 258 261 266 274 283 291 296 299 300 303 306 309
187 220 136 144 230 249 181 154 172 190 190 214 233 228 201 179 190 205 219 209 188 243 258 251 251 257 218 167 185 178 165 173 189 201 204 202 204 211 219 225 227 232 237 240 241 239 236 235 237 242 247 250 253 255 255 254 251 247 244 243 242 243 245 244 243 243 245 248 247 245 247 252 256 258 260 263 268 274 280 284 288 291 293 297 302 305
187 204 82 130 215 230 160 153 172 160 92 254 251 232 167 174 207 203 206 194 193 224 233 232 248 255 201 168 185 187 184 192 208 215 218 226 233 237 242 246 249 250 251 252 252 253 251 249 249 251 254 255 255 254 253 251 249 245 242 241 243 247 248 246 245 246 248 249 247 246 248 253 258 261 263 266 270 273 276 279 282 286 290 295 299 302
167 164 136 169 199 219 73 146 145 99 49 259 252 210 178 208 219 185 191 211 210 213 215 224 237 231 156 162 188 199 197 208 224 228 231 238 242 246 251 255 258 257 253 251 251 252 254 256 256 255 252 248 245 242 242 244 245 244 243 244 247 250 250 248 247 248 249 248 246 247 249 253 258 262 265 267 270 271 273 276 278 283 289 293 297 300
153 156 165 174 176 193 36 101 114 161 227 247 263 168 190 217 216 202 210 216 211 209 209 217 212 160 146 174 193 204 207 218 235 240 238 239 239 242 245 246 247 248 246 246 247 247 250 250 247 243 237 235 236 232 232 235 237 237 237 240 244 247 248 249 249 250 250 249 248 249 251 254 258 262 265 267 268 269 271 273 277 282 287 291 295 299
159 164 167 147 143 143 101 107 153 219 235 267 351 352 239 222 213 212 223 222 209 208 215 199 170 181 197 203 208 222 231 235 242 242 237 236 235 231 231 233 237 240 240 239 239 240 240 235 232 232 234 238 240 237 237 239 237 232 228 230 237 241 245 248 250 251 251 251 251 252 254 257 259 262 265 266 267 268 269 272 276 280 285 289 294 299
169 168 147 129 141 114 124 177 205 244 274 320 337 325 30 81 113 178 242 245 217 201 204 209 214 221 223 222 223 234 243 247 252 249 240 235 233 229 231 238 241 237 233 232 230 229 227 227 231 238 242 245 245 245 247 249 245 240 236 236 239 240 242 244 247 250 252 254 256 257 258 260 262 264 265 266 266 266 267 270 274 279 284 289 294 300
175 170 155 173 183 145 162 206 241 326 295 258 253 236 174 148 146 156 210 253 227 185 180 194 220 231 229 227 224 220 225 259 281 268 253 241 236 234 236 237 227 220 220 217 216 219 223 231 237 240 242 242 243 245 245 245 245 245 244 243 242 240 239 243 248 253 257 260 262 263 264 264 265 265 265 265 264 264 266 269 273 278 283 289 295 301
177 177 178 195 198 154 165 222 263 283 262 241 208 201 183 172 165 142 151 275 248 180 182 186 208 223 214 186 172 169 151 72 295 270 250 230 223 218 217 216 211 211 213 210 213 221 229 236 239 238 237 234 232 234 237 238 239 237 237 239 241 244 248 253 258 262 266 269 270 269 269 268 267 266 265 264 263 263 265 269 273 278 284 291 297 302
71 75 175 195 196 161 180 222 220 230 251 227 197 219 173 158 140 99 73 285 249 188 188 184 193 215 209 176 160 150 130 148 253 254 217 179 189 189 188 198 200 204 211 216 226 234 236 238 235 228 224 222 224 230 232 230 226 226 236 247 250 254 256 258 263 267 270 273 275 274 274 273 270 268 265 264 263 264 267 270 275 280 287 294 299 303
89 78 182 206 207 190 198 223 231 245 262 213 205 209 165 150 130 98 7 267 233 188 185 181 193 211 202 174 163 155 165 195 230 253 187 166 169 172 177 190 198 209 224 234 242 242 237 232 226 220 220 223 230 230 224 221 224 235 252 262 262 262 263 264 267 268 270 273 275 275 275 274 273 270 267 265 265 266 268 272 277 284 291 297 301 303
118 133 190 214 221 213 212 227 257 266 236 221 206 176 156 139 117 128 229 221 174 178 182 184 199 208 192 175 173 182 209 215 214 182 166 176 179 178 183 198 213 236 252 251 248 244 236 230 225 223 228 233 235 231 225 227 237 251 263 266 265 268 271 272 272 270 271 275 277 277 276 274 272 270 268 267 267 268 270 275 281 288 294 298 301 302
156 132 181 219 222 218 221 233 270 269 194 156 156 169 158 139 131 213 184 152 154 170 181 187 197 199 189 186 190 200 218 224 218 197 184 192 197 195 199 214 228 248 260 256 250 241 231 227 226 226 232 238 239 237 236 238 246 256 263 266 268 272 272 271 270 270 272 274 276 277 276 272 270 269 268 268 269 270 273 279 285 291 295 298 300 301
165 152 182 207 187 163 234 215 230 277 170 143 134 142 190 191 190 163 149 150 163 175 180 181 186 191 190 195 204 212 218 221 217 210 204 203 204 207 218 235 250 259 261 259 255 245 233 229 228 230 238 246 247 245 243 244 249 255 261 265 268 269 268 267 268 270 272 273 275 276 274 271 269 268 268 268 270 272 277 282 287 292 295 298 299 300
179 167 188 213 185 156 193 209 210 302 168 159 150 155 208 197 166 140 146 164 178 178 179 180 184 191 195 201 212 217 219 218 215 215 214 211 211 217 230 246 257 257 255 254 252 246 237 232 232 237 247 252 251 249 247 247 251 255 259 264 266 266 265 265 266 268 271 273 274 273 272 270 268 267 267 269 271 275 279 283 288 292 294 295 297 297
200 173 175 201 197 171 183 201 170 111 169 175 174 190 200 194 178 151 159 178 180 179 182 186 190 196 200 208 217 220 224 223 220 222 221 217 219 229 239 248 252 251 252 251 247 240 234 232 236 245 253 255 252 250 250 249 252 255 259 263 264 263 262 263 264 269 272 273 273 272 270 268 267 267 268 270 273 276 279 284 288 291 292 294 295 295
159 138 141 118 229 241 261 152 148 134 174 185 194 212 208 203 199 186 183 190 187 187 192 197 200 204 209 217 223 224 227 228 227 227 223 221 229 239 244 249 250 249 249 248 243 236 232 233 240 249 254 255 252 250 250 250 252 255 259 261 261 259 258 259 263 270 274 274 274 272 270 269 268 268 269 270 273 276 280 285 288 290 291 292 293 292
188 157 150 107 221 238 332 131 148 152 182 190 198 210 213 214 214 205 204 209 205 201 206 209 212 214 217 223 229 232 237 236 231 227 223 225 237 248 253 256 257 253 249 247 244 237 233 235 243 251 256 256 254 252 251 251 252 254 257 258 257 255 254 257 263 271 275 276 276 274 273 271 269 269 270 271 274 277 282 286 288 289 290 291 291 291
190 156 160 215 210 186 181 197 155 145 193 197 203 211 211 212 216 215 215 220 220 217 219 221 222 225 228 233 237 242 246 243 235 229 227 232 245 256 261 263 264 260 254 249 246 242 238 239 245 253 258 259 258 256 255 254 255 255 256 256 255 253 253 257 264 271 274 276 277 277 275 274 271 270 271 272 275 280 283 286 287 288 289 289 289 290
136 155 178 170 146 126 354 223 111 40 298 218 209 210 213 216 219 220 222 226 229 230 231 232 233 236 241 246 250 252 251 248 241 235 234 241 252 262 267 270 270 267 261 254 248 245 243 245 249 254 259 261 261 260 258 258 258 257 257 256 254 251 251 256 263 269 271 274 276 276 276 275 273 272 272 274 277 281 283 285 285 286 287 287 287 288
132 171 181 111 143 234 219 182 172 149 279 227 212 211 217 221 222 224 227 229 232 234 238 240 242 246 250 254 256 255 255 255 252 246 247 253 260 266 273 276 274 270 264 257 252 249 248 249 251 253 256 258 259 258 257 258 259 258 255 254 251 249 250 255 261 266 268 272 274 275 275 273 272 272 273 276 279 281 282 282 283 284 284 284 285 287
183 199 185 154 183 218 184 182 190 196 222 234 226 225 228 228 227 227 229 232 236 240 246 250 252 254 257 259 259 258 259 262 262 259 260 263 266 270 275 276 274 270 266 260 258 256 255 255 255 254 254 254 254 255 257 260 260 257 253 251 249 248 249 254 260 264 267 270 272 272 272 272 272 273 275 277 279 280 280 281 280 281 282 284 286 289